DELTA 1 DEB, 26823

Orbit data source: Space-Track

DELTA 1 DEB, 26823 is space debris in SSO originally from a launch on Thu, 12 Jun 1975 UTC launched from the Air Force Western Test Range (AFWTR). Debris objects in space refer to the collection of defunct objects orbiting the Earth. Examples of debris include non-operational satellites, rocket bodies, and fragments generated from explosions, collisions, or faulty payload assembly.

Loading next visibility...
Identifier
26823, 1975-052KD
Orbit
SSO
Country
Flag of USUS
Related business
Manufacturer
Unknown
Mission
Spacecraft
Bus & Motor
Unknown
Mass
Unknown
Launch date (UTC)
1975-06-12 (51 years ago)
Launch vehicle
Unknown
Launch site
Air Force Western Test Range (AFWTR)
Object type
Payload
Rocket body
Debris
Shape & HBR
Unknown shape, 0.1 m
Radar Cross Section
Medium (>0.1 m² and <1 m²)

Expand to show TLE details & history
Last TLE update: 2 days ago

TLE from 2 days ago
0 DELTA 1 DEB
1 26823U 75052KD  26171.11958046  .00000748  00000-0  11365-2 0  9998
2 26823 100.0052  50.1588 0046449 123.2766  33.3087 13.55480489706994
Epoch: 2026-06-20T02:52Z
TLE epoch observation values (Epoch: 2026-06-20T02:52:11.751Z)
Latitude
22.76809°
Longitude
-77.0046°
Altitude
1,026.008 km
Speed
7.355 km/s
True Right ascension
15h 37m 31s
True Declination
22° 39' 00"
Sunlit
Object was in full shadow at epoch
Visualization orbit readout
Latitude
Unknown
Longitude
Unknown
Altitude
Unknown
Speed
Unknown
Apparent Right ascension
Unknown
Apparent Declination
Unknown
Sunlit
N/A
Visualization observer readout
Local Sidereal Time
11:11:53
Azimuth
Unknown
Elevation
Unknown
Doppler factor
Unknown
Orbital elements
Apogee altitude
1,083.973 km
Perigee altitude
1,014.972 km
Semi-major axis
7,427.61 km
Eccentricity
0.00464
Inclination
100.0052°
RAAN
50.1588°
Arg. of periapsis
123.2766°
True anomaly
33.60242°
Mean anomaly
33.3087°
Eccentric anomaly
33.45542°
Mean motion
3.39055 °/min
Orbital period
106.18 mins
BSTAR
0.0011365
Loading maneuver chart data...
Computing Atmospheric mass density...
Loading historical data...
Loading historical data...
Loading historical data...
Loading historical data...
Loading historical data...
Loading historical data...
Loading historical data...

Documentation

Showing up to 5 results
|